Satellite: INMARSAT 3-F1
Catalog number: 23839
Epoch time:      103068.78945861
Element set:     883 
Inclination:        0.0519 deg
RA of node:       335.6736 deg
Eccentricity:    0.0003665
Arg of perigee:   359.2941 deg
Mean anomaly:     180.1592 deg
Mean motion:    1.00273291 rev/day
Decay rate:    2.0999E-007 rev/day^2
Epoch rev:            2540
Checksum:              322

Satellite: ASTRA 1F
Catalog number: 23842
Epoch time:      103064.00000000
Element set:     562 
Inclination:        0.0122 deg
RA of node:       319.8851 deg
Eccentricity:    0.0002995
Arg of perigee:    65.1991 deg
Mean anomaly:     156.4263 deg
Mean motion:    1.00273184 rev/day
Decay rate:    1.1099E-006 rev/day^2
Epoch rev:            2526
Checksum:              245

Satellite: JAS 2
Catalog number: 24278
Epoch time:      103068.91875140
Element set:     576 
Inclination:       98.5411 deg
RA of node:       217.5164 deg
Eccentricity:    0.0350751
Arg of perigee:   166.2072 deg
Mean anomaly:     194.8952 deg
Mean motion:   13.52875070 rev/day
Decay rate:    9.0999E-007 rev/day^2
Epoch rev:           32392
Checksum:              339

Satellite: UNAMSAT
Catalog number: 24305
Epoch time:      103068.93918808
Element set:     671 
Inclination:       82.9253 deg
RA of node:       248.4456 deg
Eccentricity:    0.0029127
Arg of perigee:   145.9511 deg
Mean anomaly:     214.3502 deg
Mean motion:   13.73454913 rev/day
Decay rate:    2.0499E-006 rev/day^2
Epoch rev:           32614
Checksum:              311

Satellite: INMARSAT 3-F2
Catalog number: 24307
Epoch time:      103067.96582736
Element set:     92 
Inclination:        0.0475 deg
RA of node:       344.5087 deg
Eccentricity:    0.0004994
Arg of perigee:    10.6448 deg
Mean anomaly:     143.2930 deg
Mean motion:    1.00272604 rev/day
Decay rate:   -1.2100E-006 rev/day^2
Epoch rev:            2380
Checksum:              268

Satellite: HOT BIRD 2
Catalog number: 24665
Epoch time:      103054.87288413
Element set:     344 
Inclination:        0.0674 deg
RA of node:       252.7220 deg
Eccentricity:    0.0007661
Arg of perigee:    70.4027 deg
Mean anomaly:     157.3662 deg
Mean motion:    1.00270188 rev/day
Decay rate:    7.5999E-007 rev/day^2
Epoch rev:            2331
Checksum:              394

Satellite: INMARSAT 3-F3
Catalog number: 24674
Epoch time:      103065.60077771
Element set:     3 
Inclination:        0.0465 deg
RA of node:       312.2906 deg
Eccentricity:    0.0003294
Arg of perigee:   356.7126 deg
Mean anomaly:     249.2867 deg
Mean motion:    1.00275029 rev/day
Decay rate:    3.7000E-007 rev/day^2
Epoch rev:         2274
Checksum:              273

Satellite: GOES 10
Catalog number: 24786
Epoch time:      103068.26725914
Element set:     580 
Inclination:        0.1802 deg
RA of node:       103.1844 deg
Eccentricity:    0.0002262
Arg of perigee:   282.4246 deg
Mean anomaly:     101.6159 deg
Mean motion:    1.00266156 rev/day
Decay rate:    9.4000E-007 rev/day^2
Epoch rev:            2152
Checksum:              362

Satellite: INMARSAT 3-F4
Catalog number: 24819
Epoch time:      103064.70598575
Element set:     893 
Inclination:        0.0564 deg
RA of node:       302.6467 deg
Eccentricity:    0.0004680
Arg of perigee:    60.0221 deg
Mean anomaly:       0.5213 deg
Mean motion:    1.00271137 rev/day
Decay rate:   -2.9099E-006 rev/day^2
Epoch rev:          2116
Checksum:              387

Satellite: FENGYUN 2A
Catalog number: 24834
Epoch time:      103068.81245803
Element set:     977 
Inclination:        2.6199 deg
RA of node:        88.2398 deg
Eccentricity:    0.0001122
Arg of perigee:   240.3967 deg
Mean anomaly:     217.1528 deg
Mean motion:    1.00278031 rev/day
Decay rate:   -1.9399E-006 rev/day^2
Epoch rev:            2103
Checksum:              297

Satellite: HOT BIRD 3
Catalog number: 24931
Epoch time:      103054.87288413
Element set:     428 
Inclination:        0.1004 deg
RA of node:       298.5607 deg
Eccentricity:    0.0010424
Arg of perige   36.2408 deg
Mean anomaly:     145.6862 deg
Mean motion:    1.00270404 rev/day
Decay rate:    7.5000E-007 rev/day^2
Epoch rev:            2013
Checksum:              248

Satellite: METEOSAT 7
Catalog number: 24932
Epoch time:      103068.96950559
Element set:     259 
Inclination:        0.2568 deg
RA of node:        74.2476 deg
Eccentricity:    0.0001169
Arg of perigee:   225.2499 deg
Mean anomaly:     217.0209 deg
Mean motion:    1.00263562 rev/day
Decay rate:    9.9999E-009 rev/day^2
Epoch rev:            2021
Checksum:              323

Satellite: ASTRA 1G
Catalog number: 25071
Epoch time:      103064.00000000
Element set:     394 
Inclination:        0.0122 deg
RA of node:       319.8851 deg
Eccentricity:    0.0002995
Arg of perigee:    65.1991 deg
Mean anomaly:     156.4370 deg
Mean motion:    1.00273184 rev/day
Decay rate:    1.1099E-006 rev/day^2
Epoch rev:            1928
Checksum:              248

Satellite: INMARSAT 3-F5
Catalog number: 25153
Epoch time:      103064.83099755
Element set:     853 
Inclination:        0.4578 deg
RA of node:       353.8307 deg
Eccentricity:    0.0004423
Arg of perigee:   227.6819 deg
Mean anomaly:     265.8219 deg
Mean motion:    1.00270482 rev/day
Decay rate:    1.3500E-006 rev/day^2
Epoch rev:            1865
Checksum:              303

Satellite: HOT BIRD 4
Catalog number: 25237
Epoch time:      103055.98151369
Element set:     330 
Inclination:        0.0547 deg
RA of node:       293.1775 deg
Eccentricity:    0.0007524
Arg of perigee:   338.0934 deg
Mean anomaly:     249.5459 deg
Mean motion:    1.00273950 rev/day
Decay rate:    7.4000E-007 rev/day^2
Epoch rev:            1860
Checksum:              290

Satellite: NOAA 15
Catalog number: 25338
Epoch time:      103069.54992123
Element set:     34 
Inclination:       98.5492 deg
RA of node:        91.1581 deg
Eccentricity:    0.0009601
Arg of perigee:   259.7622 deg
Mean anomaly:     100.2475 deg
Mean motion:   24254055 rev/day
Decay rate:    2.5199E-006 rev/day^2
Epoch rev:           25064
Checksum:              309

Satellite: RESURS O1-N4
Catalog number: 25394
Epoch time:      103068.96027882
Element set:     470 
Inclination:       98.6290 deg
RA of node:       146.5271 deg
Eccentricity:    0.0002390
Arg of perigee:    63.4397 deg
Mean anomaly:     296.7026 deg
Mean motion:   14.23885001 rev/day
Decay rate:    2.0400E-006 rev/day^2
Epoch rev:           24229
Checksum:              309

Satellite: TMSAT
Catalog number: 25396
Epoch time:      103068.93543127
Element set:     855 
Inclination:       98.6238 deg
RA of node:       145.6607 deg
Eccentricity:    0.0003908
Arg of perigee:    91.6989 deg
Mean anomaly:     268.4642 deg
Mean motion:   14.23515955 rev/day
Decay rate:   -4.3000E-007 rev/day^2
Epoch rev:           24228
Checksum:              335

Satellite: TECHSAT 1B
Catalog number: 25397
Epoch time:      103068.96478311
Element set:     136 
Inclination:       98.6183 deg
RA of node:       144.5441 deg
Eccentricity:    0.0002182
Arg of perigee:    88.8517 deg
Mean anomaly:     271.2911 deg
Mean motion:   14.22964511 rev/day
Decay rate:    1.0700E-006 rev/day^2
Epoch rev:           24225
Checksum:              297

Satellite: ASTRA 2A
Catalog number: 25462
Epoch time:      103064.00000000
Element set:     536 
Inclination:        0.0385 deg
RA of node:       308.7109 deg
Eccentricity:    0.0004824
Arg of perigee:   280.8620 deg
Mean anomaly:     320.9573 deg
Mean motion:    1.00272094 rev/day
Decay rate:    1.4099E-006 rev/day^2
Epoch rev:            1658
Checksum:              248

Satellite: EUTELSAT W2
Catalog number: 25491
Epoch time:      103065.98472802
Element set:     585 
Inclination:        0.0087 deg
RA of node:       231.6351 deg
Eccentricity:    0.0003538
Arg of perigee:   114.2061 deg
Mean anomaly:     188.9050 deg
Mean motion:    1.00273114 rev/day
Decay rate:    1.0200E-006 rev/day^2
Epoch rev:            1621
Checksum:              243

Satellite: HOT BIRD 5
Catalog number: 25495
Epoch time:      103063.86782987
Element set:     503 
Inclination:        0.0348 deg
RA of node:    115.8222 deg
Eccentricity:    0.0002188
Arg of perigee:   119.7671 deg
Mean anomaly:     265.0383 deg
Mean motion:    1.00131550 rev/day
Decay rate:    1.2299E-006 rev/day^2
Epoch rev:            1616
Checksum:              287

Satellite: SEDSAT 1
Catalog number: 25509
Epoch time:      103068.32547706
Element set:     797 
Inclination:       31.4296 deg
RA of node:        47.2364 deg
Eccentricity:    0.0357237
Arg of perigee:   106.5864 deg
Mean anomaly:     257.4275 deg
Mean motion:   14.27455969 rev/day
Decay rate:    6.7500E-006 rev/day^2
Epoch rev:           22799
Checksum:              437

Satellite: PAN SAT
Catalog number: 25520
Epoch time:      103068.28118827
Element set:     653 
Inclination:       28.4563 deg
RA of node:        99.1984 deg
Eccentricity:    0.0006162
Arg of perigee:   193.3688 deg
Mean anomaly:     166.6723 deg
Mean motion:   15.13982344 rev/day
Decay rate:    3.8130E-005 rev/day^2
Epoch rev:           24042
Checksum:              316

Satellite: ISS (ZARYA)
Catalog number: 25544
Epoch time:      103069.52704191
Element set:     765 
Inclination:       51.6347 deg
RA of node:       155.7627 deg
Eccentricity:    0.0011737
Arg of perigee:   299.7455 deg
Mean anomaly:     182.6897 deg
Mean motion:   15.59504681 rev/day
Decay rate:    2.8388E-004 rev/day^2
Epoch rev:           24561
Checksum:              348

